St. Marys, AK

3:56 PM AKDT on October 14, 2019 (GMT -0800)
Saint Mary's

Weather History for PASM - August, 2019

Change the Weather History Date:

Saturday, August 24, 2019

  Actual Average Record
Temperature  
Mean Temperature 52 °F -  
Max Temperature 44 °F 53 °F 73 °F (2004)
Min Temperature 42 °F 41 °F 33 °F (2002)
Degree Days  
Heating Degree Days 14    
Growing Degree Days 2 (Base 50)    
Moisture  
Dew Point 45 °F    
Average Humidity 82    
Maximum Humidity 100    
Minimum Humidity 50    
Precipitation  
Precipitation 0.00 in - - ()
Sea Level Pressure  
Sea Level Pressure 29.89 in    
Wind  
Wind Speed 4 mph ()    
Max Wind Speed 16 mph    
Max Gust Speed -    
Visibility 8.8 miles    
Events Rain    
Averages and records for this station are not official NWS values.
T = Trace of Precipitation, MM = Missing Value Source: Averaged Metar Reports

Daily Weather History Graph

Daily Weather History Graph

Search for Another Location

Airport or City:

Astronomy

Aug. 24, 2019 Rise Set
Actual Time 7:21 AM AKDT 10:27 PM AKDT
Civil Twilight 6:29 AM AKDT 11:19 PM AKDT
Nautical Twilight 5:14 AM AKDT 12:32 AM AKDT
Astronomical Twilight 3:28 AM AKDT 2:22 AM AKDT
Moon 12:38 AM AKDT (8/24) 6:58 PM AKDT (8/24)
Length of Visible Light 16h 50m
Length of Day
15h 06m
Last Quarter, 37% of the Moon is Illuminated
Aug 24
Last Quarter
Aug 30
New
Sep 5
First Quarter
Sep 13
Full
Sep 21
Last Quarter

Hourly Weather History & Observations

Time (AKDT) Temp. Windchill Dew Point Humidity Pressure Visibility Wind Dir Wind Speed Gust Speed Precip Events Conditions
12:02 AM 48.9 °F - 46.0 °F 90% 29.85 in 10.0 mi North 5.8 mph - N/A   Mostly Cloudy
1:02 AM 46.0 °F 44.8 °F 45.0 °F 96% 29.86 in 10.0 mi NE 3.5 mph - N/A   Partly Cloudy
2:02 AM 46.0 °F 44.8 °F 44.1 °F 93% 29.87 in 10.0 mi NNE 3.5 mph - N/A   Mostly Cloudy
2:54 AM 46.4 °F 44.3 °F 44.6 °F 93% 29.85 in 8.0 mi North 4.6 mph - N/A   Overcast
3:02 AM 46.0 °F 44.8 °F 46.0 °F 100% 29.87 in 6.0 mi NNE 3.5 mph - 0.00 in Rain Light Rain
3:38 AM 48.2 °F - 46.4 °F 93% 29.85 in 10.0 mi Calm Calm - 0.00 in   Overcast
5:02 AM 46.9 °F - 46.0 °F 97% 29.87 in 10.0 mi Calm Calm - N/A   Overcast
6:02 AM 46.0 °F 44.8 °F 44.1 °F 93% 29.88 in 10.0 mi NNW 3.5 mph - N/A   Mostly Cloudy
7:02 AM 45.0 °F 42.6 °F 43.0 °F 93% 29.88 in 10.0 mi North 4.6 mph - N/A   Mostly Cloudy
7:52 AM 42.8 °F - 42.8 °F 100% 29.87 in 1.0 mi Calm Calm - N/A   Partly Cloudy
8:02 AM 44.6 °F 43.1 °F 42.8 °F 93% 29.87 in 1.2 mi NE 3.5 mph - N/A   Mostly Cloudy
8:10 AM 42.8 °F - 42.8 °F 100% 29.87 in 0.8 mi Calm Calm - N/A   Scattered Clouds
8:21 AM 44.6 °F 43.1 °F 44.6 °F 100% 29.87 in 10.0 mi NNE 3.5 mph - N/A   Mostly Cloudy
9:02 AM 46.0 °F 43.9 °F 45.0 °F 96% 29.90 in 10.0 mi North 4.6 mph - N/A   Clear
10:02 AM 48.0 °F - 45.0 °F 89% 29.90 in 10.0 mi North 5.8 mph - N/A   Clear
11:02 AM 53.1 °F - 46.9 °F 80% 29.91 in 10.0 mi NNW 5.8 mph - N/A   Clear
12:02 PM 55.0 °F - 45.0 °F 69% 29.91 in 10.0 mi North 9.2 mph - N/A   Scattered Clouds
1:02 PM 55.9 °F - 45.0 °F 67% 29.92 in 10.0 mi North 6.9 mph - N/A   Mostly Cloudy
2:02 PM 57.9 °F - 44.1 °F 60% 29.93 in 10.0 mi Calm Calm - N/A   Scattered Clouds
3:02 PM 59.0 °F - 43.0 °F 55% 29.93 in 10.0 mi Variable 3.5 mph - N/A   Partly Cloudy
4:02 PM 61.0 °F - 43.0 °F 52% 29.91 in 10.0 mi Variable 4.6 mph - N/A   Partly Cloudy
5:02 PM 61.0 °F - 43.0 °F 52% 29.91 in 10.0 mi North 8.1 mph - N/A   Mostly Cloudy
6:02 PM 61.0 °F - 42.1 °F 50% 29.91 in 10.0 mi NW 9.2 mph - N/A   Clear
7:02 PM 59.0 °F - 46.9 °F 64% 29.91 in 10.0 mi WNW 16.1 mph - N/A   Scattered Clouds
8:02 PM 55.9 °F - 46.9 °F 72% 29.92 in 10.0 mi NW 15.0 mph - N/A   Partly Cloudy
9:02 PM 53.1 °F - 45.0 °F 74% 29.93 in 10.0 mi NW 13.8 mph - N/A   Clear
10:02 PM 48.9 °F - 44.1 °F 83% 29.94 in 10.0 mi NW 6.9 mph - N/A   Clear
11:02 PM 46.0 °F 42.5 °F 43.0 °F 89% 29.96 in 10.0 mi NW 6.9 mph - N/A   Clear